Simultaneous Nadir Overpasses (SNOs) Predictions

Prediction of SNOs between NOAA-20 and AQUA Satellite Orbit:

Table of predicted SNOs for the next 14.0 days since TLE Epoch: 10/10/2020
Index Date (NOAA-20) Time (NOAA-20) Lat,Lon (NOAA-20) SZA (NOAA-20 ) Date (AQUA) Time (AQUA) Lat,Lon (AQUA) SZA (AQUA ) Distance(km) Time Diff (sec)
1 10/11/2020 14:29:24 76.00,-158.46 103.68 10/11/2020 14:29:53 75.99,-158.53 103.67 2.01 29
2 10/11/2020 15:19:52 -76.81, 11.81 77.27 10/11/2020 15:19:04 -76.81, 11.81 77.23 0.04 48
3 10/14/2020 05:58:29 -67.24, 132.86 66.38 10/14/2020 05:59:43 -67.07, 133.76 66.64 43.22 74
4 10/14/2020 06:46:15 76.27, -41.75 104.30 10/14/2020 06:46:15 76.27, -41.76 104.30 0.29 0
5 10/14/2020 07:34:47 -80.88, 159.37 82.80 10/14/2020 07:33:33 -81.22, 158.65 82.60 40.38 74
6 10/16/2020 22:12:39 -75.72, -95.16 74.16 10/16/2020 22:13:28 -75.72, -95.23 74.19 1.93 49
7 10/16/2020 23:03:05 76.54, 74.99 104.91 10/16/2020 23:02:36 76.54, 75.02 104.93 0.99 29
8 10/19/2020 14:29:29 -76.04, 21.67 73.61 10/19/2020 14:29:49 -76.04, 21.63 73.62 1.20 20
9 10/19/2020 15:19:56 76.80,-168.23 105.52 10/19/2020 15:18:58 76.81,-168.17 105.56 1.74 58
10 10/22/2020 05:55:53 75.43, -31.88 107.99 10/22/2020 05:57:01 75.42, -31.95 107.94 2.38 68
11 10/22/2020 06:46:18 -76.40, 138.70 73.12 10/22/2020 06:46:09 -76.40, 138.66 73.10 1.02 9
